Regional Weather Roundup
Issued by NWS Green Bay, WI

Current Version | Previous Version | Text Only | Print | Product List | Glossary On
Versions: 1 2 3 4 5 6 7 8 9 10 11 12 13 14 15 16 17 18 19 20 21 22 23 24 25 26 27 28 29 30 31 32 33 34 35 36 37 38 39 40 41 42 43 44 45 46 47 48 49 50
000
ASUS43 KGRB 221511
RWRGRB

NORTH-CENTRAL AND NORTHEAST WISCONSIN REGIONAL WEATHER ROUNDUP
NATIONAL WEATHER SERVICE GREEN BAY WI
900 AM CST WED JAN 22 2020

WIZ005-009-010>012-018-019-221600-
NORTH CENTRAL WISCONSIN

CITY           SKY/WX    TMP DP  RH WIND       PRES   REMARKS
IRONWOOD       CLOUDY    25  22  88 SW9       29.87R
MANITOWISH WTR CLOUDY    23  23  98 SW9       29.87R FOG
ARBOR VITAE    CLOUDY    27  25  92 SW9       29.88R
EAGLE RIVER    CLOUDY    23  19  85 SW9       29.88S
LAND O LAKES   CLOUDY    23  20  89 SW7       29.88S
RHINELANDER    CLOUDY    23  19  85 SW9       29.91R
PHILLIPS       CLOUDY    25  24  96 S9        29.89R
ANTIGO         LGT SNOW  24  21  89 SW13      29.95R
TOMAHAWK       CLOUDY    24  21  87 S5        29.93R
MERRILL        LGT SNOW  25  22  91 SW6       29.96R
$$

WIZ013-073-221600-
NORTHEAST WISCONSIN

CITY           SKY/WX    TMP DP  RH WIND       PRES   REMARKS
IRON MOUNTAIN  CLOUDY    22  16  78 S6        29.92R
MARINETTE      CLOUDY    26  20  77 SW14G21   30.02S
OCONTO         CLOUDY    26  19  75 SW12G22   30.03S
$$

WIZ017-030-035>037-045-221600-
CENTRAL WISCONSIN

CITY           SKY/WX    TMP DP  RH WIND       PRES   REMARKS
MEDFORD        MIX PCPN  24  22  93 S9        29.93R
WAUSAU         LGT SNOW  24  21  88 S13       29.95R VSB 3/4
MOSINEE        LGT SNOW  25  21  86 S14       29.97S
MARSHFIELD     LGT SNOW  27  23  85 SW9       29.95S VSB 1
WISC RAPIDS    CLOUDY    26  20  77 SW15G24   30.01R
STEVENS POINT  MIX PCPN  25  20  82 SW10G17   30.01R
WAUPACA        PTSUNNY   28  20  72 S13       30.04S
SHAWANO        CLOUDY    28  20  75 SW7       30.01R
CLINTONVILLE   CLOUDY    27  19  73 SW16      30.03R
WAUTOMA        CLOUDY    26  20  77 SW13      30.05S
$$

WIZ038-039-048-051-221600-
FOX VALLEY

CITY           SKY/WX    TMP DP  RH WIND       PRES   REMARKS
NWS GREEN BAY  FAIR      26  18  71 SW17G29   30.05R
APPLETON       CLOUDY    25  16  68 SW20G26   30.03S
OSHKOSH        FAIR      25  18  74 S17G30    30.06S
FOND DU LAC    FAIR      26  19  74 S20G29    30.08S
$$

WIZ022-050-052-221600-
EAST CENTRAL WISCONSIN

CITY           SKY/WX    TMP DP  RH WIND       PRES   REMARKS
EPHRAIM        PTSUNNY   27  19  73 SW10G22   30.01S
WASHINGTON ISL CLOUDY    26  20  76 SW12G20   30.01F
STURGEON BAY   FAIR      27  21  78 SW20      30.03S
MANITOWOC      FAIR      29  21  72 SW12      30.09S
SHEBOYGAN      FAIR      27  19  72 SW17      30.10S
$$

LMZ563-521-522-541>543-221600-
LAKESHORE

STATION/POSITION TIME  TEMP    WIND        PRES    VSBY  WAVE
                       AIR SEA DIR/SP/G                  HT/PER
                 (UTC) (F)     (DEG/KT/KT) (MB)    (MI)  (FT/S)
SHEBOYGAN LKSHOR 1500   27     220/ 20/ 24   N/A
KEWAUNEE LKSHORE 1424   28     210/ 10/ 15 1017.3
SISTER BAY LKSHO 1457   29     220/ 13/ 17   N/A
MENOMINEE LKSHOR 1424   24 35  190/ 11/ 14 1016.4
$$



USA.gov is the U.S. government's official web portal to all federal, state and local government web resources and services.